Weather History for Chillicothe, MO

Change the Weather History Date:

Wednesday, January 30, 2013

  Actual Average (KIRK) Record (KIRK)
Temperature  
Mean Temperature 29 °F 27 °F  
Max Temperature 34 °F 36 °F 64 °F (2012)
Min Temperature 21 °F 17 °F -16 °F (1965)
Degree Days  
Heating Degree Days 36 38  
Month to date heating degree days 1168  
Since 1 July heating degree days 3511  
Cooling Degree Days 0 0  
Month to date cooling degree days 0  
Year to date cooling degree days 0  
Moisture  
Dew Point 21 °F    
Average Humidity 77    
Maximum Humidity 92    
Minimum Humidity 63    
Precipitation  
Precipitation 0.30 in 0.06 in 1.28 in (2002)
Month to date precipitation 1.20  
Year to date precipitation 1.20  
Sea Level Pressure  
Sea Level Pressure 29.75 in    
Wind  
Wind Speed 10 mph (NW)    
Max Wind Speed 16 mph    
Max Gust Speed 31 mph    
T = Trace of Precipitation, MM = Missing Value Source: NWS Daily Summary

Daily Weather History Graph

Daily Weather History Graph

Search for Another Location

Airport:

Trip Planner

Search our weather history database for the weather conditions in past years. The results will help you decide how hot, cold, wet, or windy it might be!

Date:

Astronomy

Jan. 30, 2013 Rise Set
Actual Time 7:23 AM CST 5:31 PM CST
Civil Twilight 6:55 AM CST 6:00 PM CST
Nautical Twilight 6:22 AM CST 6:32 PM CST
Astronomical Twilight 5:51 AM CST 7:04 PM CST
Moon 9:30 PM CST (1/30) 8:52 AM CST (1/30)
Length of Visible Light 11h 05m
Length of Day
10h 07m
Waning Gibbous, 87% of the Moon is Illuminated
Jan 30
Waning Gibbous
Feb 3
Last Quarter
Feb 10
New
Feb 17
First Quarter
Feb 25
Full

Hourly Weather History & Observations

Time (CST) Temp. Windchill Dew Point Humidity Pressure Visibility Wind Dir Wind Speed Gust Speed Precip Events Conditions
12:52 AM 34.0 °F 25.5 °F 32.0 °F 92% 29.49 in - NE 11.5 mph 19.6 mph 0.03 in   Unknown
1:52 AM 34.0 °F 28.8 °F 32.0 °F 92% 29.51 in - Variable 5.8 mph - 0.03 in   Unknown
2:52 AM 33.1 °F 28.7 °F 30.9 °F 92% 29.52 in - NW 4.6 mph - 0.05 in   Unknown
3:52 AM 33.1 °F 26.9 °F 30.9 °F 92% 29.53 in - WNW 6.9 mph - 0.09 in   Unknown
4:52 AM 32.0 °F 22.5 °F 28.9 °F 88% 29.53 in - NNW 12.7 mph 21.9 mph 0.07 in   Unknown
5:52 AM 30.0 °F 19.1 °F 25.0 °F 82% 29.55 in - NNW 15.0 mph 31.1 mph N/A   Unknown
6:52 AM 28.0 °F 19.3 °F 24.1 °F 85% 29.60 in - NW 9.2 mph 24.2 mph N/A   Unknown
7:52 AM 27.0 °F 17.3 °F 21.9 °F 81% 29.64 in - NW 10.4 mph 23.0 mph 0.01 in   Unknown
8:52 AM 25.0 °F 12.6 °F 21.0 °F 85% 29.67 in - NW 15.0 mph 23.0 mph N/A   Unknown
9:52 AM 25.0 °F 12.2 °F 21.0 °F 85% 29.71 in - NW 16.1 mph 28.8 mph 0.01 in   Unknown
10:52 AM 26.1 °F 13.6 °F 21.0 °F 81% 29.74 in - NW 16.1 mph 24.2 mph 0.01 in   Unknown
11:52 AM 27.0 °F 16.1 °F 19.9 °F 75% 29.76 in - NNW 12.7 mph 29.9 mph N/A   Unknown
12:52 PM 27.0 °F 17.3 °F 19.9 °F 75% 29.77 in - NW 10.4 mph 19.6 mph N/A   Unknown
1:52 PM 27.0 °F 16.1 °F 18.0 °F 69% 29.79 in - NW 12.7 mph 24.2 mph N/A   Unknown
2:52 PM 27.0 °F 15.6 °F 17.1 °F 66% 29.81 in - NW 13.8 mph 21.9 mph N/A   Unknown
3:52 PM 27.0 °F 17.3 °F 17.1 °F 66% 29.84 in - NW 10.4 mph 17.3 mph N/A   Unknown
4:52 PM 26.1 °F 16.8 °F 16.0 °F 66% 29.88 in - NW 9.2 mph 20.7 mph N/A   Unknown
5:52 PM 25.0 °F 14.8 °F 14.0 °F 63% 29.91 in - WNW 10.4 mph 20.7 mph N/A   Unknown
6:52 PM 25.0 °F 15.5 °F 15.1 °F 66% 29.94 in - WNW 9.2 mph 18.4 mph N/A   Unknown
7:52 PM 25.0 °F 14.8 °F 14.0 °F 63% 29.96 in - WNW 10.4 mph 26.5 mph N/A   Unknown
8:52 PM 25.0 °F 17.1 °F 15.1 °F 66% 29.98 in - Variable 6.9 mph - N/A   Unknown
9:52 PM 24.1 °F 17.0 °F 16.0 °F 71% 29.99 in - West 5.8 mph - N/A   Unknown
10:52 PM 24.1 °F 19.7 °F 15.1 °F 69% 29.99 in - West 3.5 mph - N/A   Unknown
11:52 PM 21.9 °F 15.7 °F 14.0 °F 72% 30.00 in - Variable 4.6 mph - N/A   Unknown